Regional Weather Roundup
Issued by NWS Albany, NY

Home | Current Version | Previous Version | Text Only | Print | Product List | Glossary On
Versions: 1 2 3 4 5 6 7 8 9 10 11 12 13 14 15 16 17 18 19 20 21 22 23 24 25 26 27
000
ASUS41 KALY 171910
RWRALY

NEW YORK STATE HOURLY WEATHER ROUNDUP
NATIONAL WEATHER SERVICE ALBANY NY
300 PM EDT THU AUG 17 2017

NOTE: "FAIR" INDICATES FEW OR NO CLOUDS BELOW 12,000 FEET WITH NO
SIGNIFICANT WEATHER AND/OR NO OBSTRUCTIONS TO VISIBILITY.

NYZ032-033-038>043-046>054-057>066-NYZ062>081-082-084-172000-
EAST


CITY           SKY/WX    TMP DP  RH WIND       PRES   REMARKS
ALBANY         PTSUNNY   79  50  36 N8        30.00F
GLENS FALLS    SUNNY     77  51  40 S7        30.00F
POUGHKEEPSIE   SUNNY     80  58  46 CALM      29.99F
NEWBURGH       MOSUNNY   79  63  57 VRB6      30.02F
MONTGOMERY     SUNNY     80  61  52 CALM      30.00F
WHITE PLAINS   MOSUNNY   79  59  50 S8        30.01F
ISLIP          PTSUNNY   78  53  41 SE7       30.02F
NEW YORK CITY  PTSUNNY   81  63  54 S10       30.01F
CENTRAL PARK   SUNNY     80  63  55 VRB3      30.04F
$$

NYZ005>009-017-018-044>046-055-056-172000-
CENTRAL


CITY           SKY/WX    TMP DP  RH WIND       PRES   REMARKS
FULTON         CLOUDY    78  59  51 CALM      29.97F
SYRACUSE       PTSUNNY   78  58  49 NE7       29.96F
ROME           SUNNY     80  52  37 S6        29.99F
ELMIRA         SUNNY     85  65  51 S7        29.95F
BINGHAMTON     MOSUNNY   76  61  59 S6        30.02F
MONTICELLO     MOSUNNY   78  59  51 S8        30.05F
$$

NYZ026>034-041>043-087-172000-
NORTH


CITY           SKY/WX    TMP DP  RH WIND       PRES   REMARKS
WATERTOWN      CLOUDY    78  54  43 CALM      29.97F
FORT DRUM      NOT AVBL
OGDENSBURG     FAIR      80  54  40 CALM      29.99F
MASSENA        MOSUNNY   77  56  48 CALM      29.99F
SARANAC LAKE   SUNNY     72  51  47 SW7       30.02F
PLATTSBURGH    MOSUNNY   74  57  55 SE10      29.99F
$$

NYZ001>004-010>016-019>021-085-172000-
WEST


CITY           SKY/WX    TMP DP  RH WIND       PRES   REMARKS
NIAGARA FALLS  CLOUDY    80  64  58 E9        29.89F
BUFFALO        CLOUDY    80  62  54 E7        29.90F
DUNKIRK        CLOUDY    84  68  58 S6        29.88F
JAMESTOWN      CLOUDY    79  67  66 S9        29.95F
WELLSVILLE     MOSUNNY   82  62  50 VRB5      30.01F
ROCHESTER      CLOUDY    79  63  57 E9        29.94F
PENN YAN       MOSUNNY   80  61  52 VRB3      29.97F
$$

             KEY
       WCI = WIND CHILL INDEX
       VSB = VISIBILITY
       HX  = HEAT INDEX
$$




USA.gov is the U.S. government's official web portal to all federal, state and local government web resources and services.